Terminal Aerodrome Forecast
Issued by NWS

Home | Current Version | Previous Version | Text Only | Print | Product List | Glossary On
Versions: 1 2 3 4 5 6 7 8 9 10 11 12 13 14 15 16 17 18 19 20 21 22 23 24 25 26 27 28 29 30 31 32 33 34 35 36 37 38 39 40 41 42 43 44 45 46 47 48 49 50
000
FTUS45 KBOU 012322
TAFBJC
TAF
KBJC 012322Z 0200/0224 34014G22KT P6SM SCT010 SCT035 BKN070
      TEMPO 0202/0206 4SM -SHRA BR BKN015 OVC040
     FM020600 27012KT P6SM VCSH FEW020 SCT045 BKN060
     FM021200 28006KT P6SM FEW010 SCT070 BKN120
     FM021600 29012KT P6SM FEW120 SCT200
     FM022000 31010KT P6SM FEW090 SCT120=

USA.gov is the U.S. government's official web portal to all federal, state and local government web resources and services.